Wind_Speed
32 32 32 31 32 32 33 33 33 33 34 35 35 35 34 34 33 33 33 32 32 31 31 32 32 33 33 34 34 34 35 35 35 36 37 37 38 38 38 38 38 38 39 39
33 33 32 32 32 33 33 34 34 34 34 35 35 36 35 35 35 34 34 33 33 32 32 33 33 33 34 35 35 35 35 36 36 36 37 38 39 40 40 40 39 39 40 40
32 32 32 33 33 33 33 34 34 34 34 35 36 36 35 34 34 34 34 34 34 34 34 34 34 34 35 35 35 36 37 37 37 38 39 40 40 40 41 41 41 41 41 41
31 31 32 33 33 33 33 33 34 34 34 35 35 36 34 33 33 33 34 34 34 34 35 35 35 35 35 36 36 37 37 38 38 40 40 40 40 40 40 41 42 42 42 42
30 30 31 31 31 32 33 33 33 34 35 35 35 36 34 32 32 32 33 34 35 35 36 36 35 36 36 36 37 38 38 39 39 40 40 41 41 41 41 42 42 43 43 43
30 30 30 30 30 31 32 32 33 33 33 36 35 35 33 32 32 32 33 34 35 35 36 36 37 37 37 37 38 38 39 39 39 39 39 40 41 41 42 42 42 43 43 43
29 29 30 29 29 30 30 31 31 32 32 34 33 35 32 31 31 32 32 33 35 36 36 37 37 37 38 38 38 39 39 40 40 39 39 39 40 40 41 42 42 42 42 43
28 28 28 29 29 29 29 29 29 31 31 31 32 33 32 31 31 32 33 33 34 35 36 37 37 37 38 39 39 40 40 40 40 40 39 39 40 40 40 41 41 42 42 41
29 29 28 28 28 28 28 28 29 30 31 32 32 32 32 31 32 33 33 34 35 35 36 37 37 38 39 39 40 40 40 40 40 40 39 39 40 40 40 40 41 41 41 40
29 29 28 28 28 28 28 28 28 29 30 31 32 32 32 31 32 32 33 34 35 36 36 36 37 38 39 39 40 40 40 40 39 39 39 39 40 39 39 40 40 40 40 39
28 29 28 28 28 27 27 27 28 29 30 30 31 32 32 32 33 33 33 34 34 35 36 37 38 38 39 39 40 40 40 39 39 39 39 40 40 39 39 40 39 39 39 39
28 30 29 29 29 28 29 29 29 30 31 31 31 31 32 33 34 35 35 34 35 35 36 37 38 38 39 39 39 39 39 39 39 39 39 40 40 40 39 40 40 39 39 39
30 31 30 29 29 29 29 29 30 31 32 31 32 32 32 33 35 35 36 35 35 35 36 36 37 38 38 38 38 38 38 38 39 39 39 39 39 39 39 38 38 39 38 38
30 31 31 29 29 29 29 29 30 31 32 32 31 32 30 31 33 35 35 36 35 35 35 36 37 37 37 37 37 37 37 38 39 40 39 39 38 38 37 37 37 37 37 37
30 30 30 30 29 29 30 30 31 32 32 32 31 31 30 29 30 31 33 35 35 36 36 36 36 36 36 36 36 36 36 37 37 38 38 38 38 37 37 37 37 36 36 36
30 31 31 31 30 30 30 30 31 32 32 33 33 31 30 30 31 31 32 34 34 35 35 35 35 35 35 35 35 35 36 35 35 36 37 37 37 36 36 36 36 36 36 36
30 30 31 31 31 32 32 30 30 31 32 33 33 32 30 30 30 31 32 34 34 35 35 34 35 34 34 34 34 34 34 34 34 34 35 35 35 35 35 35 35 35 35 35
29 29 31 32 32 33 30 30 30 31 31 32 33 33 33 32 31 31 32 34 35 36 36 35 35 35 35 36 35 35 34 34 34 33 33 33 33 33 33 33 34 34 34 34
28 28 30 31 32 33 31 29 30 31 31 31 32 33 34 33 33 32 32 33 35 36 36 35 35 34 35 35 35 35 35 34 33 32 32 32 31 32 32 32 32 33 34 33
28 28 29 30 31 32 31 31 31 31 31 30 31 32 33 34 34 33 33 33 34 35 35 35 35 35 35 35 35 35 34 34 32 31 31 31 32 31 31 31 32 32 32 32
27 28 29 30 31 31 29 30 30 31 30 30 31 31 31 32 33 34 34 35 35 36 36 36 36 35 35 35 34 34 33 32 32 31 31 31 31 31 31 31 32 32 32 31
27 28 29 31 32 30 29 29 30 30 31 31 31 31 31 31 32 33 34 34 35 35 35 35 35 35 35 34 33 32 32 32 32 32 32 32 31 31 31 32 32 31 30 30
29 29 30 31 31 30 30 30 30 30 30 31 31 31 31 32 32 33 33 33 33 33 33 34 35 35 33 32 31 31 31 32 32 32 31 31 31 30 30 30 31 30 29 29
30 30 31 31 30 30 30 31 31 31 31 31 31 31 31 31 32 33 33 33 32 32 31 31 32 32 31 30 30 31 31 31 31 30 30 30 30 29 30 30 30 29 29 29
31 32 32 32 31 31 30 31 31 31 32 32 32 32 32 32 32 32 32 32 32 31 30 29 29 28 29 29 29 29 30 30 29 29 29 29 29 28 28 28 28 29 29 30
31 30 31 31 30 30 30 30 30 31 31 31 31 31 32 32 32 31 32 32 31 30 29 28 27 27 28 28 28 28 28 28 28 28 28 28 28 28 28 28 27 28 28 28
Wind_Direction
258 258 259 261 262 262 261 261 261 260 259 257 256 255 254 254 255 257 257 257 257 257 258 258 258 260 261 262 262 262 264 264 265 265 266 267 268 268 268 269 270 269 267 265
259 258 260 261 260 260 260 260 260 260 259 258 257 257 256 256 257 258 258 257 256 257 257 258 260 261 262 264 264 265 265 266 266 267 268 268 268 268 268 268 269 269 269 267
260 260 259 259 258 258 258 260 261 262 261 259 259 258 257 257 258 258 258 257 257 257 259 260 262 262 263 265 266 267 267 267 267 268 270 270 270 270 270 269 270 269 268 268
260 259 259 258 257 258 258 259 260 261 261 259 260 261 258 258 259 259 259 259 259 259 260 262 263 263 264 266 268 268 268 269 269 270 271 272 272 271 271 270 270 269 268 268
260 258 258 258 258 259 259 260 261 261 262 260 260 262 260 259 259 260 260 261 261 261 262 263 264 264 266 267 268 269 269 270 271 272 272 272 272 271 271 271 270 269 269 267
260 259 258 258 259 259 260 261 262 262 263 263 261 264 263 262 262 262 263 263 263 262 263 264 264 265 266 267 268 269 270 271 272 273 273 273 272 271 271 272 271 271 269 268
260 258 256 256 257 257 259 261 263 263 264 265 265 265 266 265 265 265 265 264 263 262 263 264 265 266 266 267 269 270 271 273 273 273 273 273 273 272 271 271 271 271 270 268
262 260 257 256 257 257 258 261 263 265 266 267 267 267 267 267 266 267 267 266 265 264 264 264 265 267 268 269 269 270 272 273 272 272 272 272 272 273 272 271 270 270 270 268
262 260 259 258 259 258 258 260 262 265 268 270 270 270 267 267 266 267 268 268 266 264 264 265 266 267 268 269 270 272 273 272 271 271 270 270 272 272 272 271 271 270 269 267
262 261 259 258 258 259 261 263 263 264 268 272 273 272 272 268 267 269 270 270 268 266 265 266 267 268 269 270 271 272 272 271 270 270 271 271 272 273 272 272 271 271 269 267
264 262 260 260 259 262 262 264 264 264 266 272 275 275 273 272 271 271 271 270 270 269 268 267 267 268 269 270 271 271 271 270 269 270 271 272 273 273 273 272 272 271 269 267
262 262 261 261 261 262 263 265 265 265 265 269 274 277 276 275 273 272 271 271 270 270 269 269 269 269 270 270 270 270 270 268 268 270 271 271 273 273 273 271 270 270 268 267
261 260 261 259 260 261 262 265 266 267 266 269 273 278 279 277 275 273 272 271 270 270 270 269 270 270 270 270 270 270 270 269 269 270 270 271 272 273 271 270 270 270 268 268
258 258 259 261 262 263 263 265 266 266 267 269 272 277 279 278 277 275 273 271 271 271 271 271 271 271 271 270 271 272 270 269 270 270 270 271 271 272 271 270 270 269 268 267
256 258 258 260 262 263 265 267 267 265 266 269 273 275 278 278 278 277 274 272 271 272 272 272 273 273 273 271 272 271 270 271 271 270 270 270 271 271 270 270 269 269 268 268
256 258 258 259 262 264 266 267 266 266 267 268 271 273 275 276 276 275 275 273 272 272 272 273 274 274 273 272 272 271 270 270 271 271 271 270 270 271 270 269 268 268 268 267
255 258 260 262 263 266 268 269 268 268 267 268 270 272 273 273 274 275 274 274 274 274 274 274 274 273 272 273 273 271 270 270 271 271 271 270 270 270 269 268 268 268 267 266
256 258 261 263 264 267 271 271 270 269 268 269 270 271 271 272 273 274 274 274 274 276 276 275 274 272 272 273 272 271 270 271 271 271 272 272 271 270 269 268 269 268 267 267
257 260 262 264 266 269 270 271 271 272 270 270 271 271 271 272 272 274 275 275 274 275 275 275 274 274 274 273 271 271 271 271 271 271 271 272 271 270 269 269 269 269 268 267
258 260 264 266 269 271 273 273 273 274 274 274 273 272 272 273 273 274 275 276 276 276 276 275 275 275 274 273 271 271 270 270 269 271 272 271 271 270 269 269 269 269 268 267
258 261 264 267 271 273 274 274 275 273 275 275 275 275 275 276 276 276 277 277 276 277 276 275 276 275 275 274 272 270 269 268 268 270 272 271 270 269 269 268 269 269 268 265
261 263 265 267 270 273 272 273 273 274 274 274 275 276 277 278 278 280 281 280 278 276 275 275 275 275 275 274 271 269 269 269 270 271 271 270 270 269 268 267 268 268 266 263
263 266 268 268 271 273 272 271 272 273 274 275 276 278 279 280 280 281 283 283 281 279 277 276 275 275 274 272 269 268 269 270 270 271 271 270 269 268 266 267 267 266 263 262
263 264 266 269 271 271 271 270 271 271 273 274 276 278 279 281 282 283 283 283 281 278 278 278 277 275 272 270 270 270 269 270 269 270 269 268 267 266 266 267 266 264 262 262
263 265 267 270 272 271 270 269 270 272 273 274 275 277 279 281 282 283 283 282 280 279 279 278 277 274 271 270 269 270 269 268 267 268 269 268 267 266 266 265 264 264 263 263
264 268 270 271 271 269 269 269 271 273 274 275 276 277 279 281 281 281 282 281 280 279 279 278 277 275 272 270 268 269 268 268 268 269 270 270 269 269 266 264 264 264 265 264
Height
5719 5721 5721 5723 5724 5724 5724 5725 5726 5727 5727 5728 5729 5730 5732 5733 5734 5735 5735 5736 5737 5738 5739 5739 5740 5741 5741 5742 5743 5743 5744 5744 5744 5744 5744 5744 5744 5743 5743 5742 5742 5742 5742 5742
5711 5712 5713 5713 5714 5714 5715 5716 5717 5718 5718 5719 5720 5721 5723 5724 5725 5726 5726 5727 5729 5730 5730 5731 5731 5732 5733 5733 5733 5734 5734 5734 5734 5734 5734 5733 5733 5733 5733 5732 5732 5732 5732 5732
5701 5704 5703 5704 5705 5705 5706 5707 5708 5709 5709 5709 5710 5712 5714 5715 5716 5717 5717 5718 5719 5721 5721 5722 5723 5723 5724 5724 5724 5724 5724 5724 5724 5724 5723 5722 5722 5722 5722 5722 5721 5721 5721 5721
5692 5693 5693 5694 5695 5696 5697 5699 5699 5699 5699 5700 5701 5701 5705 5706 5707 5708 5708 5709 5710 5711 5712 5712 5713 5713 5714 5714 5714 5714 5714 5714 5713 5713 5712 5711 5711 5711 5711 5710 5710 5709 5709 5709
5683 5684 5685 5686 5687 5688 5689 5690 5690 5690 5690 5691 5691 5691 5695 5697 5698 5699 5700 5700 5701 5702 5702 5703 5703 5704 5704 5704 5704 5704 5703 5703 5702 5702 5701 5700 5700 5699 5699 5698 5698 5697 5697 5697
5675 5676 5677 5678 5679 5679 5680 5681 5681 5681 5681 5681 5683 5682 5685 5688 5689 5690 5691 5691 5691 5691 5692 5692 5693 5693 5693 5693 5693 5693 5692 5692 5692 5691 5690 5689 5688 5687 5687 5686 5686 5685 5685 5685
5667 5668 5669 5670 5670 5671 5672 5672 5672 5671 5671 5672 5674 5673 5677 5679 5680 5681 5681 5681 5681 5681 5682 5682 5682 5683 5683 5682 5682 5682 5681 5681 5680 5679 5678 5677 5677 5676 5675 5675 5674 5674 5673 5673
5659 5660 5661 5662 5662 5663 5663 5664 5664 5663 5663 5664 5665 5665 5669 5670 5670 5670 5671 5671 5671 5671 5671 5671 5672 5672 5672 5672 5671 5671 5670 5669 5669 5668 5667 5666 5665 5665 5664 5663 5662 5662 5662 5662
5651 5653 5653 5654 5655 5656 5655 5656 5656 5656 5655 5655 5656 5657 5660 5661 5661 5661 5661 5661 5661 5661 5661 5661 5661 5661 5661 5660 5660 5659 5659 5658 5657 5657 5656 5655 5654 5654 5653 5652 5651 5651 5650 5650
5643 5645 5646 5646 5647 5648 5648 5648 5648 5647 5646 5646 5647 5649 5651 5652 5652 5652 5651 5651 5651 5651 5651 5651 5650 5650 5650 5649 5649 5648 5647 5646 5646 5645 5645 5644 5643 5642 5642 5641 5640 5640 5639 5639
5636 5637 5638 5639 5640 5640 5641 5641 5640 5639 5639 5639 5638 5643 5643 5642 5642 5642 5642 5641 5641 5640 5640 5640 5640 5639 5639 5638 5637 5637 5636 5635 5635 5634 5634 5633 5632 5631 5631 5630 5629 5629 5628 5628
5628 5628 5629 5631 5632 5632 5632 5633 5633 5633 5632 5631 5630 5635 5634 5633 5632 5632 5632 5631 5630 5630 5630 5629 5629 5629 5628 5627 5627 5625 5625 5624 5624 5623 5623 5622 5621 5620 5619 5619 5618 5618 5618 5618
5620 5620 5621 5623 5625 5625 5624 5625 5625 5624 5624 5623 5622 5627 5625 5624 5622 5622 5621 5621 5621 5620 5619 5619 5618 5617 5617 5616 5616 5615 5614 5613 5613 5612 5612 5611 5610 5609 5608 5608 5607 5607 5607 5607
5611 5612 5614 5616 5616 5616 5616 5617 5617 5616 5615 5615 5615 5616 5617 5615 5613 5612 5612 5611 5610 5610 5609 5608 5607 5607 5606 5605 5605 5604 5603 5602 5602 5601 5601 5600 5599 5598 5597 5597 5597 5596 5596 5597
5603 5604 5605 5607 5608 5608 5608 5609 5608 5608 5607 5607 5607 5607 5607 5606 5604 5603 5601 5601 5600 5600 5599 5598 5597 5596 5595 5595 5594 5593 5593 5592 5591 5590 5589 5589 5588 5588 5587 5586 5586 5586 5586 5586
5594 5595 5597 5598 5599 5598 5599 5600 5600 5599 5599 5598 5598 5598 5598 5596 5595 5594 5592 5591 5591 5590 5589 5588 5587 5587 5586 5585 5584 5583 5582 5581 5580 5580 5579 5578 5578 5577 5576 5576 5576 5575 5575 5575
5586 5587 5588 5589 5590 5589 5591 5593 5591 5591 5590 5590 5589 5590 5589 5588 5587 5585 5583 5582 5581 5580 5579 5579 5578 5577 5576 5575 5574 5573 5572 5571 5570 5570 5569 5568 5567 5567 5566 5565 5565 5565 5565 5565
5579 5579 5579 5580 5581 5580 5586 5584 5583 5581 5581 5581 5580 5580 5579 5579 5578 5576 5575 5573 5572 5571 5570 5568 5568 5567 5566 5565 5564 5563 5562 5561 5561 5560 5559 5558 5557 5557 5556 5556 5555 5555 5555 5555
5571 5571 5571 5571 5570 5572 5576 5575 5574 5572 5572 5573 5572 5571 5570 5569 5569 5568 5566 5564 5562 5561 5560 5559 5557 5556 5555 5554 5553 5553 5552 5552 5551 5550 5549 5549 5548 5547 5547 5547 5546 5546 5545 5545
5563 5563 5564 5563 5562 5563 5568 5567 5564 5563 5563 5564 5562 5561 5561 5560 5560 5560 5557 5555 5553 5551 5550 5549 5547 5546 5545 5544 5543 5543 5542 5542 5541 5541 5540 5539 5539 5538 5538 5538 5537 5537 5536 5536
5555 5555 5555 5555 5553 5555 5558 5557 5555 5556 5557 5555 5553 5552 5551 5551 5550 5549 5547 5545 5543 5542 5540 5539 5537 5536 5535 5534 5533 5533 5532 5532 5531 5531 5531 5530 5530 5529 5529 5528 5528 5527 5527 5527
5547 5547 5547 5547 5546 5550 5549 5547 5547 5546 5545 5545 5544 5543 5542 5541 5540 5538 5537 5535 5534 5532 5530 5529 5528 5527 5525 5524 5523 5523 5523 5522 5522 5522 5522 5521 5521 5520 5520 5519 5519 5519 5518 5519
5539 5540 5539 5540 5541 5540 5539 5538 5537 5537 5536 5535 5535 5534 5533 5532 5531 5529 5527 5526 5524 5522 5521 5519 5518 5517 5515 5514 5514 5514 5514 5513 5513 5513 5512 5512 5511 5511 5511 5511 5510 5510 5510 5511
5531 5531 5530 5530 5531 5530 5529 5529 5528 5528 5527 5526 5526 5525 5524 5523 5521 5520 5518 5516 5514 5513 5511 5510 5508 5507 5506 5506 5505 5505 5504 5504 5504 5503 5503 5503 5502 5503 5502 5502 5502 5502 5502 5503
5522 5522 5521 5521 5521 5520 5521 5520 5519 5519 5518 5517 5517 5516 5515 5513 5512 5510 5508 5507 5505 5504 5502 5501 5499 5498 5497 5497 5497 5496 5495 5495 5495 5495 5494 5494 5494 5494 5494 5494 5494 5494 5494 5494
5514 5513 5512 5512 5512 5511 5511 5511 5510 5510 5509 5508 5507 5506 5505 5503 5502 5501 5499 5498 5496 5495 5493 5492 5490 5489 5489 5488 5488 5487 5487 5486 5486 5486 5486 5486 5486 5486 5485 5485 5485 5485 5486 5486